| time (UTC) | temp C | wind direction | speed KPH | gust KPH | rain 1hr cm | rain 24hr cm | rain mn cm | humidity % | barometer mb |
| 20260507225546 | 16 | 174 | 3.2 | 9.7 | 0.00 | 0.48 | 0.00 | 77 | 1013.7 |
| 20260507224545 | 16 | 154 | 3.2 | 9.7 | 0.00 | 0.48 | 0.00 | 76 | 1013.8 |
| 20260507223604 | 16 | 177 | 4.8 | 9.7 | 0.00 | 0.48 | 0.00 | 79 | 1013.8 |
| 20260507222603 | 15 | 184 | 3.2 | 9.7 | 0.00 | 0.51 | 0.00 | 80 | 1014.0 |
| 20260507221638 | 16 | 183 | 4.8 | 8.0 | 0.00 | 0.51 | 0.00 | 77 | 1013.8 |
| 20260507220540 | 16 | 183 | 4.8 | 9.7 | 0.00 | 0.51 | 0.00 | 74 | 1013.9 |
| 20260507215539 | 16 | 167 | 3.2 | 6.4 | 0.00 | 0.56 | 0.56 | 72 | 1014.1 |
| 20260507214537 | 16 | 155 | 3.2 | 8.0 | 0.00 | 0.61 | 0.56 | 74 | 1014.2 |
| 20260507213535 | 17 | 172 | 1.6 | 6.4 | 0.00 | 0.66 | 0.56 | 71 | 1014.1 |
| 20260507212535 | 17 | 172 | 1.6 | 3.2 | 0.00 | 0.66 | 0.56 | 69 | 1014.3 |
| 20260507211534 | 17 | 159 | 1.6 | 6.4 | 0.00 | 0.66 | 0.56 | 71 | 1014.3 |
| 20260507210533 | 17 | 145 | 3.2 | 8.0 | 0.00 | 0.66 | 0.56 | 71 | 1014.4 |
| 20260507205531 | 17 | 132 | 0.0 | 4.8 | 0.00 | 0.66 | 0.56 | 72 | 1014.2 |
| 20260507204530 | 17 | 139 | 0.0 | 3.2 | 0.00 | 0.66 | 0.56 | 74 | 1014.3 |
| 20260507203528 | 17 | 153 | 1.6 | 4.8 | 0.00 | 0.71 | 0.56 | 76 | 1014.4 |
| 20260507201526 | 17 | 216 | 0.0 | 4.8 | 0.00 | 0.71 | 0.56 | 74 | 1014.4 |
| 20260507200546 | 17 | 201 | 1.6 | 3.2 | 0.00 | 0.71 | 0.56 | 74 | 1014.2 |
| 20260507195523 | 17 | 182 | 1.6 | 4.8 | 0.00 | 0.71 | 0.56 | 72 | 1014.3 |
| 20260507194542 | 18 | 180 | 1.6 | 3.2 | 0.00 | 0.71 | 0.56 | 69 | 1014.2 |
| 20260507193519 | 18 | 0.0 | 3.2 | 0.00 | 0.71 | 0.56 | 66 | 1014.2 | |
| 20260507192518 | 19 | 12 | 0.0 | 3.2 | 0.00 | 0.71 | 0.56 | 65 | 1014.2 |
| 20260507191516 | 19 | 214 | 1.6 | 4.8 | 0.00 | 0.71 | 0.56 | 64 | 1014.2 |
| 20260507190615 | 20 | 207 | 3.2 | 9.7 | 0.00 | 0.71 | 0.56 | 63 | 1014.1 |
| 20260507185613 | 19 | 242 | 1.6 | 6.4 | 0.00 | 0.71 | 0.56 | 63 | 1014.1 |
| 20260507184611 | 20 | 290 | 1.6 | 4.8 | 0.00 | 0.71 | 0.56 | 61 | 1014.0 |
| 20260507183609 | 20 | 152 | 3.2 | 8.0 | 0.00 | 0.71 | 0.56 | 59 | 1013.9 |
| 20260507182608 | 20 | 134 | 3.2 | 6.4 | 0.00 | 0.74 | 0.56 | 59 | 1014.0 |
| 20260507181607 | 21 | 117 | 1.6 | 4.8 | 0.00 | 0.76 | 0.56 | 58 | 1014.1 |
| 20260507180605 | 21 | 105 | 1.6 | 4.8 | 0.00 | 0.84 | 0.56 | 57 | 1014.1 |
| 20260507175604 | 21 | 95 | 1.6 | 4.8 | 0.00 | 0.99 | 0.56 | 57 | 1014.1 |
| 20260507174603 | 21 | 133 | 3.2 | 9.7 | 0.00 | 1.04 | 0.56 | 55 | 1014.1 |
| 20260507173603 | 21 | 101 | 3.2 | 8.0 | 0.00 | 1.04 | 0.56 | 54 | 1014.0 |
| 20260507172621 | 22 | 116 | 3.2 | 8.0 | 0.00 | 1.04 | 0.56 | 52 | 1014.0 |
| 20260507171620 | 22 | 113 | 4.8 | 14.5 | 0.00 | 1.04 | 0.56 | 52 | 1014.0 |
| 20260507170559 | 22 | 124 | 4.8 | 12.9 | 0.00 | 1.04 | 0.56 | 50 | 1013.9 |
| 20260507165558 | 22 | 114 | 4.8 | 9.7 | 0.00 | 1.04 | 0.56 | 46 | 1013.8 |
| 20260507164557 | 22 | 144 | 3.2 | 9.7 | 0.00 | 1.04 | 0.56 | 41 | 1013.9 |
| 20260507163557 | 22 | 131 | 4.8 | 11.3 | 0.00 | 1.04 | 0.56 | 41 | 1013.8 |
| 20260507162615 | 23 | 192 | 1.6 | 11.3 | 0.00 | 1.04 | 0.56 | 38 | 1013.8 |
| 20260507161553 | 23 | 159 | 1.6 | 8.0 | 0.00 | 1.04 | 0.56 | 36 | 1013.8 |
| 20260507160552 | 23 | 181 | 3.2 | 9.7 | 0.00 | 1.04 | 0.56 | 34 | 1013.7 |
| 20260507155551 | 23 | 171 | 4.8 | 11.3 | 0.00 | 1.04 | 0.56 | 32 | 1013.7 |
| 20260507154550 | 23 | 176 | 6.4 | 12.9 | 0.00 | 1.04 | 0.56 | 32 | 1013.8 |
| 20260507153550 | 22 | 173 | 3.2 | 8.0 | 0.00 | 1.04 | 0.56 | 37 | 1013.9 |
| 20260507152548 | 23 | 152 | 8.0 | 16.1 | 0.00 | 1.04 | 0.56 | 38 | 1014.0 |
| 20260507151547 | 23 | 173 | 6.4 | 12.9 | 0.00 | 1.04 | 0.56 | 42 | 1014.1 |
| 20260507150546 | 23 | 152 | 4.8 | 16.1 | 0.00 | 1.04 | 0.56 | 44 | 1014.0 |
| 20260507145544 | 22 | 184 | 3.2 | 11.3 | 0.00 | 1.04 | 0.56 | 46 | 1014.3 |
| 20260507144544 | 22 | 171 | 9.7 | 19.3 | 0.00 | 1.04 | 0.56 | 49 | 1014.3 |
| 20260507143543 | 22 | 175 | 8.0 | 16.1 | 0.00 | 1.04 | 0.56 | 50 | 1014.2 |
| 20260507142542 | 23 | 138 | 6.4 | 17.7 | 0.00 | 1.04 | 0.56 | 49 | 1014.3 |
| 20260507141540 | 23 | 112 | 6.4 | 14.5 | 0.00 | 1.04 | 0.56 | 43 | 1014.6 |
| 20260507140540 | 23 | 84 | 6.4 | 20.9 | 0.00 | 1.04 | 0.56 | 45 | 1014.9 |
| 20260507135538 | 23 | 92 | 6.4 | 14.5 | 0.00 | 1.04 | 0.56 | 48 | 1015.0 |
| 20260507134538 | 22 | 291 | 4.8 | 9.7 | 0.00 | 1.04 | 0.56 | 55 | 1015.1 |
| 20260507133536 | 22 | 117 | 3.2 | 9.7 | 0.00 | 1.04 | 0.56 | 56 | 1015.2 |
| 20260507132535 | 22 | 177 | 6.4 | 12.9 | 0.00 | 1.04 | 0.56 | 58 | 1015.3 |
| 20260507131534 | 22 | 105 | 1.6 | 9.7 | 0.00 | 1.04 | 0.56 | 54 | 1015.4 |
| 20260507130533 | 23 | 111 | 6.4 | 16.1 | 0.00 | 1.04 | 0.56 | 54 | 1015.4 |
| 20260507125532 | 22 | 179 | 6.4 | 12.9 | 0.00 | 1.04 | 0.56 | 55 | 1015.7 |
| 20260507124530 | 22 | 145 | 3.2 | 9.7 | 0.00 | 1.04 | 0.56 | 55 | 1015.8 |
| 20260507123529 | 21 | 281 | 3.2 | 9.7 | 0.00 | 1.04 | 0.56 | 58 | 1015.8 |
| 20260507122528 | 21 | 225 | 4.8 | 11.3 | 0.00 | 1.04 | 0.56 | 60 | 1015.8 |
| 20260507121547 | 21 | 91 | 3.2 | 9.7 | 0.00 | 1.04 | 0.56 | 59 | 1015.9 |
| 20260507120526 | 21 | 111 | 6.4 | 11.3 | 0.00 | 1.04 | 0.56 | 61 | 1015.9 |
| 20260507115526 | 21 | 78 | 6.4 | 14.5 | 0.00 | 1.04 | 0.56 | 62 | 1015.9 |
| 20260507114524 | 21 | 99 | 3.2 | 11.3 | 0.00 | 1.04 | 0.56 | 63 | 1016.0 |
| 20260507113544 | 21 | 333 | 4.8 | 14.5 | 0.00 | 1.04 | 0.56 | 65 | 1016.2 |
| 20260507112542 | 20 | 8 | 4.8 | 11.3 | 0.00 | 1.04 | 0.56 | 65 | 1016.1 |
| 20260507111541 | 20 | 69 | 4.8 | 11.3 | 0.00 | 1.04 | 0.56 | 66 | 1016.3 |
| 20260507110520 | 20 | 351 | 1.6 | 6.4 | 0.00 | 1.04 | 0.56 | 67 | 1016.3 |
| 20260507105519 | 20 | 240 | 1.6 | 4.8 | 0.00 | 1.04 | 0.56 | 66 | 1016.4 |
| 20260507104518 | 20 | 181 | 6.4 | 8.0 | 0.00 | 1.04 | 0.56 | 67 | 1016.3 |
| 20260507103517 | 20 | 303 | 1.6 | 8.0 | 0.00 | 1.04 | 0.56 | 67 | 1016.6 |
| 20260507102516 | 20 | 179 | 3.2 | 8.0 | 0.00 | 1.04 | 0.56 | 70 | 1016.6 |
| 20260507101635 | 20 | 40 | 6.4 | 14.5 | 0.00 | 1.04 | 0.56 | 69 | 1016.7 |
| 20260507100613 | 19 | 81 | 6.4 | 11.3 | 0.00 | 1.04 | 0.56 | 72 | 1016.8 |
| 20260507095612 | 19 | 74 | 4.8 | 14.5 | 0.00 | 1.04 | 0.56 | 71 | 1016.9 |
| 20260507094612 | 18 | 165 | 3.2 | 11.3 | 0.00 | 1.04 | 0.56 | 68 | 1016.8 |
| 20260507093611 | 18 | 213 | 4.8 | 8.0 | 0.00 | 1.04 | 0.56 | 70 | 1016.8 |
| 20260507092610 | 18 | 181 | 6.4 | 11.3 | 0.00 | 1.04 | 0.56 | 73 | 1016.9 |
| 20260507091609 | 18 | 179 | 4.8 | 12.9 | 0.00 | 1.04 | 0.56 | 74 | 1016.8 |
| 20260507090608 | 18 | 172 | 4.8 | 14.5 | 0.00 | 1.04 | 0.56 | 74 | 1016.7 |
| 20260507085607 | 18 | 11 | 4.8 | 11.3 | 0.00 | 1.04 | 0.56 | 73 | 1016.9 |
| 20260507084626 | 18 | 72 | 3.2 | 9.7 | 0.00 | 1.04 | 0.56 | 74 | 1017.0 |
| 20260507083644 | 17 | 97 | 3.2 | 9.7 | 0.00 | 1.04 | 0.56 | 75 | 1017.0 |
| 20260507082603 | 17 | 36 | 8.0 | 12.9 | 0.00 | 1.04 | 0.56 | 77 | 1017.2 |
| 20260507081602 | 17 | 60 | 6.4 | 12.9 | 0.00 | 1.04 | 0.56 | 76 | 1017.1 |
| 20260507080642 | 18 | 46 | 9.7 | 16.1 | 0.00 | 1.04 | 0.56 | 74 | 1017.3 |
| 20260507075601 | 18 | 284 | 1.6 | 8.0 | 0.00 | 1.04 | 0.56 | 76 | 1017.2 |
| 20260507074600 | 17 | 195 | 3.2 | 9.7 | 0.00 | 1.04 | 0.56 | 80 | 1017.1 |
| 20260507073559 | 17 | 269 | 3.2 | 6.4 | 0.00 | 1.04 | 0.56 | 80 | 1017.1 |
| 20260507072558 | 17 | 250 | 3.2 | 8.0 | 0.00 | 1.04 | 0.56 | 82 | 1017.2 |
| 20260507071617 | 17 | 117 | 4.8 | 9.7 | 0.00 | 1.04 | 0.56 | 82 | 1017.3 |
| 20260507070556 | 16 | 152 | 1.6 | 11.3 | 0.00 | 1.04 | 0.56 | 83 | 1017.3 |
| 20260507065555 | 16 | 172 | 3.2 | 8.0 | 0.00 | 1.04 | 0.56 | 84 | 1017.2 |
| 20260507064553 | 16 | 180 | 3.2 | 8.0 | 0.00 | 1.07 | 0.56 | 86 | 1017.0 |
| 20260507063552 | 15 | 139 | 3.2 | 9.7 | 0.00 | 1.07 | 0.56 | 87 | 1017.1 |
| 20260507062550 | 15 | 120 | 3.2 | 9.7 | 0.00 | 1.07 | 0.56 | 90 | 1016.9 |
| 20260507061549 | 15 | 98 | 3.2 | 6.4 | 0.00 | 1.07 | 0.56 | 91 | 1017.0 |
| 20260507060548 | 14 | 129 | 1.6 | 6.4 | 0.00 | 1.09 | 0.56 | 92 | 1017.1 |
| 20260507055547 | 14 | 91 | 1.6 | 4.8 | 0.00 | 1.12 | 0.56 | 94 | 1017.0 |
| 20260507054547 | 14 | 41 | 3.2 | 6.4 | 0.00 | 1.14 | 0.56 | 94 | 1016.9 |
| 20260507053545 | 13 | 78 | 1.6 | 4.8 | 0.00 | 1.17 | 0.56 | 96 | 1016.9 |
| 20260507052544 | 13 | 192 | 0.0 | 3.2 | 0.00 | 1.22 | 0.56 | 97 | 1016.8 |
| 20260507051543 | 13 | 46 | 1.6 | 4.8 | 0.00 | 1.24 | 0.56 | 98 | 1016.8 |
| 20260507050543 | 14 | 14 | 1.6 | 4.8 | 0.00 | 1.24 | 0.56 | 99 | 1016.6 |
| 20260507045600 | 13 | 307 | 0.0 | 4.8 | 0.00 | 1.24 | 0.56 | 99 | 1016.6 |
| 20260507041539 | 13 | 56 | 1.6 | 3.2 | 0.00 | 1.24 | 0.56 | 99 | 1016.7 |
| 20260507040534 | 13 | 44 | 3.2 | 4.8 | 0.00 | 1.24 | 0.56 | 99 | 1016.6 |
| 20260507035535 | 13 | 28 | 3.2 | 4.8 | 0.00 | 1.24 | 0.56 | 99 | 1016.6 |
| 20260507034532 | 13 | 33 | 3.2 | 6.4 | 0.00 | 1.24 | 0.56 | 99 | 1016.7 |
| 20260507033531 | 13 | 35 | 1.6 | 6.4 | 0.00 | 1.24 | 0.56 | 99 | 1016.5 |
| 20260507032530 | 13 | 47 | 3.2 | 6.4 | 0.00 | 1.24 | 0.56 | 99 | 1016.5 |
| 20260507031529 | 13 | 8 | 4.8 | 6.4 | 0.00 | 1.24 | 0.56 | 99 | 1016.4 |
| 20260507030527 | 13 | 17 | 4.8 | 6.4 | 0.05 | 1.24 | 0.56 | 99 | 1016.6 |
| 20260507025527 | 13 | 27 | 4.8 | 6.4 | 0.08 | 1.24 | 0.56 | 99 | 1016.6 |
| 20260507024526 | 13 | 11 | 3.2 | 4.8 | 0.10 | 1.24 | 0.56 | 98 | 1016.7 |
| 20260507023525 | 13 | 353 | 1.6 | 3.2 | 0.10 | 1.24 | 0.56 | 98 | 1016.7 |
| 20260507022524 | 13 | 15 | 1.6 | 4.8 | 0.10 | 1.24 | 0.56 | 98 | 1016.9 |
| 20260507021522 | 13 | 12 | 3.2 | 4.8 | 0.10 | 1.24 | 0.53 | 98 | 1016.7 |
| 20260507020521 | 13 | 352 | 3.2 | 6.4 | 0.05 | 1.19 | 0.51 | 98 | 1016.8 |
| 20260507015540 | 13 | 9 | 3.2 | 6.4 | 0.03 | 1.17 | 0.48 | 98 | 1016.7 |
| 20260507014519 | 13 | 6 | 3.2 | 6.4 | 0.08 | 1.14 | 0.46 | 98 | 1016.6 |
| 20260507013518 | 13 | 350 | 3.2 | 6.4 | 0.15 | 1.14 | 0.46 | 97 | 1016.4 |
| 20260507012517 | 13 | 330 | 3.2 | 11.3 | 0.18 | 1.14 | 0.46 | 97 | 1016.4 |
| 20260507011516 | 13 | 27 | 1.6 | 4.8 | 0.25 | 1.14 | 0.46 | 97 | 1016.6 |
| 20260507010627 | 13 | 69 | 3.2 | 6.4 | 0.33 | 1.14 | 0.46 | 97 | 1016.7 |
| 20260507005634 | 13 | 68 | 3.2 | 8.0 | 0.38 | 1.14 | 0.43 | 96 | 1016.7 |
| 20260507004612 | 13 | 93 | 6.4 | 12.9 | 0.30 | 1.07 | 0.38 | 96 | 1016.9 |
| 20260507003611 | 13 | 59 | 4.8 | 11.3 | 0.25 | 1.02 | 0.30 | 96 | 1017.0 |
| 20260507002610 | 13 | 73 | 4.8 | 9.7 | 0.20 | 0.97 | 0.25 | 95 | 1016.8 |
| 20260507001609 | 14 | 73 | 6.4 | 14.5 | 0.13 | 0.89 | 0.18 | 95 | 1016.7 |
| 20260507000608 | 14 | 89 | 9.7 | 25.7 | 0.05 | 0.81 | 0.10 | 95 | 1016.6 |
| 20260506235608 | 14 | 68 | 4.8 | 9.7 | 0.00 | 0.76 | 0.05 | 96 | 1016.8 |
| 20260506234605 | 14 | 30 | 1.6 | 6.4 | 0.00 | 0.76 | 0.05 | 97 | 1016.7 |
| 20260506233623 | 14 | 160 | 4.8 | 8.0 | 0.00 | 0.76 | 0.05 | 97 | 1016.7 |
| 20260506232622 | 14 | 146 | 3.2 | 8.0 | 0.00 | 0.76 | 0.05 | 97 | 1016.6 |
| 20260506231601 | 14 | 122 | 3.2 | 11.3 | 0.03 | 0.76 | 0.05 | 97 | 1016.5 |
| 20260506230600 | 14 | 163 | 3.2 | 8.0 | 0.03 | 0.76 | 0.05 | 97 | 1016.5 |